Flag for Poland Weather past 2 weeks in Płock, Poland

Now
74 °F

Mild.


Feels Like: 76 °F
Forecast: 56 / 78 °F
Wind: 2 mph from West

Location: Plock

Current Time: Aug 28, 2015 at 11:43:23 AM

Latest Report: Aug 28, 2015 at 11:00 AM


Visibility: 7 mi

Pressure: 29.93 "Hg

Humidity: 64%

Dew point: 61 °F

Location of PłockLocation

Historic Weather in Płock — Graph

°F

Płock temperature yesterday

Maximum temperature yesterday: 85 °F (at 4:00 PM)
Minimum temperature yesterday: 55 °F (at 6:00 AM)
Average temperature yesterday: 70 °F

Past Weeks' High & Low Weather Summary

 TemperatureHumidityPressure
High89 °F (Aug 15, 4:00 PM)96% (Aug 26, 1:00 AM)30.37 "Hg (Aug 26, 1:00 AM)
Low49 °F (Aug 21, 5:00 AM)24% (Aug 18, 5:00 PM)29.76 "Hg (Aug 15, 6:00 PM)
Average70 °F51%30.05 "Hg
* Reported Aug 13 10:00 AM — Aug 28 10:00 AM, Płock, Weather by CustomWeather, © 2015

Note: Actual official high and low records may vary slightly from our data, if they occured in-between our weather recording intervals... More about our weather records

Advertising

Płock weather history for previous 24 hours

 ConditionsComfort  
Time TempWeatherWind HumidityBarometerVisibility
10:00 AM
Fri, Aug 28
73 °FMild.6 mph66%29.92 "Hg6 mi
9:00 AM72 °FFog.3 mph74%29.90 "Hg6 mi
8:00 AM68 °FFog.2 mph79%29.89 "Hg5 mi
7:00 AM64 °FFog.2 mph85%29.88 "Hg5 mi
5:00 AM64 °FMild.2 mph81%29.87 "Hg7 mi
4:00 AM64 °FMild.2 mph77%29.88 "Hg10 mi
3:00 AM65 °FMild.2 mph72%29.88 "Hg13 mi
2:00 AM66 °FMild.2 mph68%29.88 "Hg15 mi
1:00 AM68 °FMild.2 mph61%29.89 "Hg19 mi
11:00 PM
Thu, Aug 27
69 °FMild.3 mph58%29.90 "Hg28 mi
10:00 PM69 °FMild.2 mph56%29.91 "Hg15 mi
9:00 PM71 °FMild.2 mph52%29.91 "Hg11 mi
8:00 PM76 °FMild.2 mph41%29.92 "Hg19 mi
7:00 PM80 °FPleasantly warm.2 mph37%29.92 "Hg25 mi
6:00 PM84 °FPleasantly warm.3 mph31%29.93 "Hg28 mi
5:00 PM84 °FPleasantly warm.3 mph31%29.93 "Hg22 mi
4:00 PM85 °FPleasantly warm.3 mph29%29.95 "Hg19 mi
3:00 PM84 °FPleasantly warm.5 mph27%29.95 "Hg22 mi
2:00 PM82 °FPleasantly warm.6 mph33%29.95 "Hg19 mi
1:00 PM81 °FPleasantly warm.6 mph40%29.98 "Hg19 mi
12:00 PM78 °FWarm.6 mph41%29.99 "Hg19 mi
11:00 AM76 °FMild.6 mph44%30.01 "Hg19 mi
Weather by CustomWeather, © 2015

See weather overviewHow to use our weather pages